This is the latest recevied weather packets stored in our database for station/object JA0ZJX-13. If no packets are shown the sender has not sent any weather packets the latest 10 day(s).
| Time | Temp. | Humidity | Pressure | Rain* | Wind** | Luminosity | Snow |
|---|---|---|---|---|---|---|---|
| 1777593822 | 8.89° C | 86% | 1006.5 hPa | 4.57 mm | - | 32 W/m² | - |
| 1777593210 | 8.89° C | 86% | 1006.9 hPa | 5.08 mm | - | 32 W/m² | - |
| 1777592620 | 8.89° C | 86% | 1007 hPa | 5.33 mm | - | 47 W/m² | - |
| 1777592008 | 8.89° C | 86% | 1007 hPa | 5.08 mm | - | 28 W/m² | - |
| 1777591421 | 8.89° C | 86% | 1007.4 hPa | 4.83 mm | - | 18 W/m² | - |
| 1777590811 | 8.89° C | 86% | 1007.7 hPa | 4.32 mm | - | 28 W/m² | - |
| 1777590220 | 8.89° C | 86% | 1008 hPa | 3.81 mm | - | 16 W/m² | - |
| 1777589615 | 8.89° C | 86% | 1008 hPa | 3.3 mm | - | 14 W/m² | - |
| 1777589024 | 8.89° C | 87% | 1008.2 hPa | 2.54 mm | - | 9 W/m² | - |
| 1777588411 | 8.89° C | 87% | 1008.3 hPa | 2.29 mm | - | 14 W/m² | - |
| 1777587822 | 8.89° C | 87% | 1008.1 hPa | 2.79 mm | - | 16 W/m² | - |
| 1777587216 | 8.89° C | 87% | 1008.9 hPa | 3.3 mm | - | 12 W/m² | - |
| 1777586606 | 8.89° C | 87% | 1008.5 hPa | 3.3 mm | - | 18 W/m² | - |
| 1777586015 | 8.89° C | 87% | 1008.4 hPa | 2.54 mm | - | 25 W/m² | - |
| 1777585404 | 8.89° C | 87% | 1008.6 hPa | 2.29 mm | - | 39 W/m² | - |
| 1777584817 | 8.89° C | 87% | 1009.3 hPa | 2.54 mm | - | 19 W/m² | - |
| 1777584206 | 8.89° C | 87% | 1009.5 hPa | 2.03 mm | - | 11 W/m² | - |
| 1777583616 | 8.89° C | 87% | 1009.9 hPa | 1.27 mm | - | 5 W/m² | - |
| 1777583009 | 8.89° C | 87% | 1009.7 hPa | 1.02 mm | - | 14 W/m² | - |
| 1777582418 | 8.89° C | 87% | 1009.6 hPa | 1.02 mm | - | 9 W/m² | - |
| 1777581807 | 8.89° C | 87% | 1009.4 hPa | 1.02 mm | - | 7 W/m² | - |
| 1777581217 | 8.89° C | 87% | 1009.7 hPa | 0.51 mm | - | 0 W/m² | - |
| 1777580611 | 8.89° C | 87% | 1010 hPa | 0 mm | - | 0 W/m² | - |
| 1777580020 | 8.89° C | 87% | 1010.4 hPa | 0 mm | - | 0 W/m² | - |
| 1777579409 | 8.89° C | 87% | 1010.5 hPa | 0 mm | - | 0 W/m² | - |
* Rain latest hour (hover to see other rain measurements)
** Current wind speed in m/s (hover to see current wind gust speed)